Location: Manchester NH
(43.0000°N, 71.5000°W)
Time: 07:35:06
(UTC-04:00)

OTV 5 (USA 277) - Visible Passes

Search period start: 20 June 2018 00:00
Search period end: 30 June 2018 00:00
Orbit: 313 x 320 km, 54.5° (Epoch: 18 June)

Date Brightness Start Highest point End Pass type
(mag) Time Alt. Az. Time Alt. Az. Time Alt. Az.
20 Jun ? 00:52:43 10° N 00:53:05 10° NNE 00:53:27 10° NNE visible
20 Jun ? 02:25:27 10° NW 02:28:01 37° NNE 02:30:34 10° ESE visible
20 Jun ? 04:00:19 10° W 04:01:29 15° WSW 04:01:29 15° WSW visible
20 Jun ? 21:55:54 10° NW 21:57:15 13° NNW 21:58:37 10° N visible
21 Jun ? 01:06:11 10° NNW 01:07:53 15° NNE 01:09:33 10° ENE visible
21 Jun ? 02:39:47 10° NW 02:40:30 16° NW 02:40:30 16° NW visible
22 Jun ? 01:20:12 10° NNW 01:21:57 23° N 01:21:57 23° N visible
23 Jun ? 00:01:09 10° N 00:02:19 12° NNE 00:03:30 10° NE visible
23 Jun ? 01:34:26 10° NW 01:34:45 13° NW 01:34:45 13° NW visible
23 Jun ? 21:05:45 10° NNW 21:06:30 11° NNW 21:07:14 10° N visible
24 Jun ? 00:15:01 10° NNW 00:17:01 19° NNE 00:17:01 19° NNE visible
24 Jun ? 22:56:30 10° N 22:56:45 10° NNE 22:56:59 10° NNE visible
25 Jun ? 00:29:08 10° NW 00:30:16 20° NNW 00:30:16 20° NNW visible
25 Jun ? 23:09:53 10° NNW 23:11:32 15° NNE 23:12:46 12° NE visible
26 Jun ? 00:43:28 10° NW 00:43:36 11° NW 00:43:36 11° NW visible
26 Jun ? 23:23:54 10° NNW 23:26:11 25° NNE 23:26:11 25° NNE visible
27 Jun ? 22:04:51 10° N 22:05:59 12° NNE 22:07:07 10° NE visible
27 Jun ? 23:38:06 10° NW 23:39:39 29° NNW 23:39:39 29° NNW visible
28 Jun ? 22:18:43 10° NNW 22:20:44 19° NNE 22:22:20 12° ENE visible
28 Jun ? 23:52:35 10° WNW 23:53:11 15° WNW 23:53:11 15° WNW visible
29 Jun ? 22:32:49 10° NW 22:35:21 36° NNE 22:35:55 32° ENE visible
